This is the latest recevied weather packets stored in our database for station/object KC1IUC-13. If no packets are shown the sender has not sent any weather packets the latest 10 day(s).
| Time | Temp. | Humidity | Pressure | Rain* | Wind** | Luminosity | Snow |
|---|---|---|---|---|---|---|---|
| 1777766943 | 10.56° C | 59% | 1007.3 hPa | 0 mm | - | 0 W/m² | - |
| 1777766403 | 10.56° C | 59% | 1007 hPa | 0 mm | - | 0 W/m² | - |
| 1777766043 | 10.56° C | 59% | 1006.6 hPa | 0 mm | - | 0 W/m² | - |
| 1777765503 | 10.56° C | 59% | 1006.6 hPa | 0 mm | - | 2 W/m² | - |
| 1777764963 | 11.11° C | 59% | 1006.6 hPa | 0 mm | - | 4 W/m² | - |
| 1777764423 | 11.11° C | 58% | 1006.6 hPa | 0 mm | - | 7 W/m² | - |
| 1777763883 | 11.67° C | 58% | 1006.6 hPa | 0 mm | - | 8 W/m² | - |
| 1777763343 | 11.67° C | 58% | 1006.6 hPa | 0 mm | - | 14 W/m² | - |
| 1777762803 | 12.22° C | 58% | 1006.6 hPa | 0 mm | - | 15 W/m² | - |
| 1777762443 | 12.22° C | 58% | 1006.6 hPa | 0 mm | - | 16 W/m² | - |
| 1777761903 | 12.22° C | 59% | 1006.6 hPa | 0 mm | - | 26 W/m² | - |
| 1777761363 | 12.22° C | 59% | 1006.3 hPa | 0 mm | - | 31 W/m² | - |
| 1777760823 | 12.22° C | 59% | 1006.3 hPa | 0 mm | - | 28 W/m² | - |
| 1777760283 | 12.22° C | 59% | 1006.6 hPa | 0 mm | - | 32 W/m² | - |
| 1777759743 | 12.78° C | 59% | 1006.3 hPa | 0 mm | - | 37 W/m² | - |
| 1777759203 | 12.78° C | 59% | 1006.3 hPa | 0 mm | - | 39 W/m² | - |
| 1777758843 | 13.33° C | 59% | 1005.9 hPa | 0 mm | - | 43 W/m² | - |
| 1777758303 | 13.33° C | 59% | 1006.3 hPa | 0 mm | - | 61 W/m² | - |
| 1777757763 | 13.89° C | 59% | 1006.3 hPa | 0 mm | - | 34 W/m² | - |
| 1777757223 | 13.89° C | 60% | 1005.9 hPa | 0 mm | - | 67 W/m² | - |
| 1777756683 | 13.89° C | 60% | 1005.9 hPa | 0 mm | - | 63 W/m² | - |
| 1777756143 | 13.89° C | 60% | 1005.9 hPa | 0 mm | - | 92 W/m² | - |
| 1777755603 | 14.44° C | 60% | 1005.6 hPa | 0 mm | - | 66 W/m² | - |
| 1777755243 | 13.89° C | 60% | 1005.9 hPa | 0 mm | - | 72 W/m² | - |
| 1777754703 | 14.44° C | 60% | 1005.9 hPa | 0 mm | - | 82 W/m² | - |
* Rain latest hour (hover to see other rain measurements)
** Current wind speed in m/s (hover to see current wind gust speed)